Tracking 25648 objects as of 16-May-2022
HD Live streaming from Space Station
objects crossing your sky now

SL-8 R/B

Track SL-8 R/B now!
10-day predictions


NORAD ID: 12088
Int'l Code: 1980-097B
Perigee: 944.5 km
Apogee: 1,018.6 km
Inclination: 82.9 °
Period: 104.6 minutes
Semi major axis: 7352 km
RCS: 4.7296 m2 (large)
Launch date: December 5, 1980
Source: Commonwealth of Independent States (former USSR) (CIS)
Launch site: PLESETSK MISSILE AND SPACE COMPLEX (PKMTR)

Note: This is a ROCKET BODY
aabbcc
Your satellite tracking list
Your tracking list is empty




NASA's NSSDC Master Catalog

Two Line Element Set (TLE):
1 12088U 80097B   22136.37339029  .00000024  00000-0  80895-5 0  9994
2 12088  82.9415  88.7422 0050352  84.9727 275.7175 13.77040151 81926
Source of the keplerian elements: AFSPC